Back to catalog

ZORKIY-2M NO. 4

AliveScienceSSO
NORAD 59774·PAYLOAD·🇷🇺 Russia
This satellite name has not been confirmed by official sources yet.

Launched May 16, 2024 from Plesetsk Cosmodrome

Loading…

Next Passes (next 24 hours)

TLE

FreshSource: Space-Track

Epoch: Sep 14, 2026, 14:29 UTC

1 59774U 24092B   26257.60406146  .00008024  00000-0  27742-3 0  9997
2 59774  97.6607  29.3092 0007604 220.4170 139.6506 15.30168081129204

Track ZORKIY-2M NO. 4 in real time with AllMySat

Download on the App Store